User: anonymous   Login
Location: Wawayanda State Park
(41.1833°N, 74.4333°W)
Time: 14:10:47
(UTC-05:00)
Language:

RESURS DK-1 - Orbit

View from above orbital plane
View from above orbital plane
View from above satellite
View from above satellite

Ground track
Ground track

The orbit data is extracted from the following two-line orbital elements,

1 29228U 06021A   15031.57009998  .00000965  00000-0  82522-4 0  6607
2 29228 069.9387 144.2381 0007833 244.8701 115.1628 15.01205892477844
Epoch (UTC): 31 January 2015 13:40:56
Eccentricity: 0.0007833
inclination: 69.9387°
perigee height: 558 km
apogee height: 568 km
right ascension of ascending node: 144.2381°
argument of perigee: 244.8701°
revolutions per day: 15.01205892
mean anomaly at epoch: 115.1628°
orbit number at epoch: 47784

The dashed part of the orbit path shows where the satellite is in the earth's shadow,  

DLR